FW2892 Weather Reports


time (UTC)temp
C
wind
direction
speed
KPH
gust
KPH
rain 1hr
cm
rain 24hr
cm
rain mn
cm
humidity
%
barometer
mb
20210224233239 -14 225 6.4 14.5 0.00 0.00 0.00 70 1023.4
20210224230234 -14 194 4.8 17.7 0.00 0.00 0.00 70 1023.7
20210224223232 -14 217 0.0 14.5 0.00 0.00 0.00 71 1024.1
20210224220233 -15 167 8.0 11.3 0.00 0.00 0.00 72 1024.2
20210224213234 -15 179 0.0 9.7 0.00 0.00 0.00 71 1024.6
20210224210235 -15 217 0.0 3.2 0.00 0.00 0.00 69 1024.8
20210224203235 -15 214 0.0 1.6 0.00 0.00 0.00 68 1025.1
20210224200235 -15 198 0.0 8.0 0.00 0.00 0.00 71 1025.0
20210224193234 -15 202 0.0 12.9 0.00 0.00 0.00 70 1025.2
20210224190230 -15 192 0.0 1.6 0.00 0.00 0.00 68 1025.6
20210224183230 -15 197 0.0 8.0 0.00 0.00 0.00 68 1026.0
20210224180236 -15 215 0.0 8.0 0.00 0.00 0.00 67 1026.2
20210224173234 -15 188 3.2 6.4 0.00 0.00 0.00 70 1026.3
20210224170237 -16 200 0.0 4.8 0.00 0.00 0.00 68 1026.6
20210224163233 -16 204 0.0 4.8 0.00 0.00 0.00 66 1026.8
20210224160229 -16 236 0.0 0.0 0.00 0.00 0.00 64 1026.9
20210224153232 -16 248 0.0 3.2 0.00 0.00 0.00 62 1027.3
20210224150232 -16 260 0.0 0.0 0.00 0.00 0.00 61 1027.4
20210224143234 -15 260 0.0 0.0 0.00 0.00 0.00 56 1027.1
20210224140230 -15 273 0.0 0.0 0.00 0.00 0.00 55 1027.3
20210224133233 -15 273 0.0 0.0 0.00 0.00 0.00 52 1027.5
20210224130233 -15 273 0.0 0.0 0.00 0.00 0.00 50 1027.8
20210224123229 -15 273 0.0 0.0 0.00 0.00 0.00 51 1028.1
20210224120235 -15 275 0.0 0.0 0.00 0.00 0.00 51 1028.2
20210224113228 -15 273 0.0 0.0 0.00 0.00 0.00 54 1028.4
20210224110244 -16 333 0.0 0.0 0.00 0.00 0.00 53 1029.0
20210224103231 -16 275 0.0 0.0 0.00 0.00 0.00 52 1028.9
20210224100238 -16 327 0.0 0.0 0.00 0.00 0.00 54 1029.0
20210224093228 -16 302 0.0 0.0 0.00 0.00 0.00 58 1029.0
20210224090231 -17 312 0.0 12.9 0.00 0.00 0.00 61 1029.3
20210224083228 -18 325 0.0 6.4 0.00 0.00 0.00 62 1029.7
20210224080228 -19 317 0.0 6.4 0.00 0.00 0.00 64 1029.7
20210224073228 -20 276 0.0 12.9 0.00 0.00 0.00 66 1029.9
20210224070231 -20 302 0.0 0.0 0.00 0.00 0.00 66 1030.0
20210224063227 -20 288 0.0 0.0 0.00 0.00 0.00 69 1030.3
20210224060228 -21 294 0.0 6.4 0.00 0.00 0.00 70 1030.6
20210224053227 -21 298 0.0 0.0 0.00 0.00 0.00 73 1030.6
20210224050227 -22 298 0.0 0.0 0.00 0.00 0.00 73 1030.5
20210224043226 -22 300 0.0 0.0 0.00 0.00 0.00 74 1030.3
20210224040227 -22 299 0.0 6.4 0.00 0.00 0.00 74 1030.3
20210224033226 -22 298 0.0 0.0 0.00 0.00 0.00 73 1030.4
20210224030233 -22 298 0.0 4.8 0.00 0.00 0.00 73 1030.3
20210224023230 -22 300 0.0 8.0 0.00 0.00 0.00 73 1030.4
20210224020227 -23 297 0.0 1.6 0.00 0.00 0.00 73 1030.3
20210224013226 -23 299 0.0 0.0 0.00 0.00 0.00 73 1030.2
20210224010233 -23 298 0.0 0.0 0.00 0.00 0.00 73 1030.1
20210224003228 -23 311 0.0 0.0 0.00 0.00 0.00 73 1029.9
20210224000227 -23 313 0.0 0.0 0.00 0.00 0.00 72 1029.7